Location: Newark
(48.1500°N, 2.9667°W)
Time: 01:35:00
(UTC+00:00)

Transit 2A - Pass Details

Date: 02 February 2020
Orbit: 600 x 959 km, 66.7° (Epoch: 19 February)

Event Time Altitude Azimuth Distance (km) Brightness Sun altitude
Rises 20:09:23 0° 263° (W) 2,849 10.1 -29.6°
Reaches altitude 10° 20:12:17 10° 284° (WNW) 1,946 9.0 -30.1°
Maximum altitude 20:15:13 17° 327° (NNW) 1,535 8.0 -30.6°
Enters shadow 20:15:54 17° 339° (NNW) 1,567 7.9 -30.7°
Drops below altitude 10° 20:18:11 10° 9° (N) 1,988 - -31.1°
Sets 20:21:12 0° 30° (NNE) 2,938 - -31.6°
